User: anonymous   Login
Location: Владивосток
(43.1151°N, 131.8856°E)
Time: 11:13:57
(UTC+10:00)
Language:

UNISAT 6 - Orbit

View from above orbital plane
View from above orbital plane
View from above satellite
View from above satellite

Ground track
Ground track

The orbit data is extracted from the following two-line orbital elements,

1 40012U 14033C   22180.52784796  .00000765  00000-0  11796-3 0  9994
2 40012  97.6615   7.8461 0058790 119.2767 241.4337 14.74933712431767
Epoch (UTC): 29 June 2022 12:40:06
Eccentricity: 0.0058790
inclination: 97.6615°
perigee height: 604 km
apogee height: 686 km
right ascension of ascending node: 7.8461°
argument of perigee: 119.2767°
revolutions per day: 14.74933712
mean anomaly at epoch: 241.4337°
orbit number at epoch: 43176

The dashed part of the orbit path shows where the satellite is in the earth's shadow,  

DLR